This is the latest recevied weather packets stored in our database for station/object LRTM. If no packets are shown the sender has not sent any weather packets the latest 10 day(s).
| Time | Temp. | Humidity | Pressure | Rain* | Wind** | Luminosity | Snow |
|---|---|---|---|---|---|---|---|
| 1777426406 | 7.78° C | 62% | 1019 hPa | - | - | - | - |
| 1777425506 | 6.11° C | 81% | 1019 hPa | - | - | - | - |
| 1777424607 | 6.11° C | 81% | 1019 hPa | - | - | - | - |
| 1777423706 | 6.11° C | 81% | 1018 hPa | - | - | - | - |
| 1777422806 | 6.11° C | 81% | 1018 hPa | - | - | - | - |
| 1777421907 | 7.22° C | 71% | 1019 hPa | - | - | - | - |
| 1777421006 | 7.22° C | 71% | 1019 hPa | - | - | - | - |
| 1777420106 | 6.11° C | 81% | 1019 hPa | - | - | - | - |
| 1777419206 | 6.11° C | 81% | 1019 hPa | - | - | - | - |
| 1777418306 | 7.22° C | 66% | 1019 hPa | - | - | - | - |
| 1777417406 | 7.22° C | 66% | 1019 hPa | - | - | - | - |
| 1777416508 | 7.78° C | 62% | 1019 hPa | - | - | - | - |
| 1777415606 | 7.78° C | 62% | 1019 hPa | - | - | - | - |
| 1777414707 | 7.22° C | 66% | 1019 hPa | - | - | - | - |
| 1777413807 | 7.22° C | 66% | 1019 hPa | - | - | - | - |
| 1777412906 | 7.22° C | 61% | 1019 hPa | - | - | - | - |
| 1777412007 | 7.22° C | 61% | 1019 hPa | - | - | - | - |
| 1777411107 | 7.78° C | 57% | 1019 hPa | - | - | - | - |
| 1777410206 | 7.78° C | 57% | 1019 hPa | - | - | - | - |
| 1777409347 | 8.89° C | 50% | 1018 hPa | - | - | - | - |
| 1777408406 | 8.89° C | 50% | 1018 hPa | - | - | - | - |
| 1777407506 | 7.78° C | 57% | 1018 hPa | - | - | - | - |
| 1777406606 | 7.78° C | 57% | 1018 hPa | - | - | - | - |
| 1777405762 | 10° C | 50% | 1018 hPa | - | - | - | - |
| 1777404808 | 10° C | 50% | 1018 hPa | - | - | - | - |
* Rain since midnight (hover to see other rain measurements)
** Current wind speed in m/s (hover to see current wind gust speed)